[[{"header":{"parameterUnit":"m.s-1","parameterCategory":1,"la1":30.2991,"la2":30.254,"lo1":-89.0895,"lo2":-89.0444,"dy":0.0017,"dx":0.0017,"nx":28,"ny":28,"refTime":"2026-02-16T09:00:00:Z","depth":0,"parameterNumber":2,"parameterNumberName":"U-component_of_WINDS"},"data":[0,0,0,0,0,0,0,0,0,0,0,0,0,0,0,0,0,0,0,0,0,0,0,0,0,0,0,0,0,0,0,0,0,0,0,0,0,0,0,0,0,0,0,0,0,0,0,0,0,0,0,0,0,0,0,0,0,0,1.3283,1.3283,0,1.3328,1.3328,1.3329,1.3342,1.3342,1.3342,1.3341,1.3387,1.3388,1.3389,0,0,0,0,0,0,0,0,0,0,0,0,0,1.3208,1.3209,1.3283,1.3283,1.3284,1.3328,1.3328,1.3329,1.3342,1.3342,1.3342,1.3341,1.3386,1.3388,1.3389,0,0,0,0,0,0,0,0,0,0,0,0,0,1.3245,1.3209,1.3283,1.3296,1.3297,1.3328,1.3328,1.3329,1.3342,1.3342,1.3342,1.3341,1.3385,1.3388,1.339,1.341,0,0,1.3396,1.3397,0,0,0,0,0,0,0,0,1.3243,1.3248,1.3293,1.3295,1.3297,1.3329,1.3319,1.3356,1.3342,1.3325,1.3341,1.3341,1.3368,1.3371,1.338,1.3412,1.3414,1.3396,1.3398,1.3399,1.3399,0,0,0,0,0,0,0,1.324,1.3246,1.3301,1.3294,1.3296,1.3299,1.3304,1.3326,1.3348,1.3327,1.3328,1.3333,1.3368,1.3378,1.3382,1.3415,1.3396,1.3398,1.3399,1.34,1.3467,1.3467,0,0,0,0,0,0,1.3236,1.3244,1.3299,1.3302,1.3269,1.3301,1.3306,1.3319,1.3348,1.3352,1.3333,1.3333,1.3375,1.3379,1.3383,1.3409,1.3399,1.3401,1.3402,1.3466,1.3467,1.3467,0,0,0,0,0,0,1.3234,1.324,1.3297,1.3273,1.3281,1.3303,1.3317,1.332,1.333,1.3353,1.3356,1.3339,1.3375,1.338,1.3404,1.3411,1.3401,1.3403,1.3466,1.3466,1.3467,1.3462,0,0,0,0,0,0,1.3232,1.324,1.3248,1.3273,1.3282,1.3317,1.3317,1.3321,1.3334,1.3334,1.3359,1.3363,1.3375,1.34,1.3406,1.3414,1.3405,1.3465,1.3466,1.3467,1.3461,1.3462,1.3463,0,0,0,0,0,1.3229,1.3244,1.3248,1.3254,1.3292,1.3317,1.3322,1.3336,1.3334,1.3342,1.3357,1.3362,1.341,1.3403,1.3409,1.3418,1.3464,1.3466,1.3467,1.3461,1.3462,1.3463,0,0,0,0,0,0,1.3217,1.3247,1.3252,1.3276,1.3294,1.3319,1.333,1.3336,1.3355,1.3355,1.3371,1.3376,1.3399,1.3411,1.3402,1.344,1.3437,1.344,1.3431,1.3432,1.3433,1.3429,1.3407,0,0,0,0,0,1.3218,1.3236,1.3261,1.3279,1.3288,1.3307,1.3319,1.3328,1.3347,1.3355,1.3371,1.339,1.3409,1.3421,1.344,1.3463,1.3469,1.3473,1.3474,1.3474,1.3476,1.349,1.3492,1.3471,1.3471,1.3471,0,0,1.3218,1.3237,1.3247,1.3277,1.3292,1.3311,1.3314,1.3333,1.3347,1.3358,1.3381,1.3394,1.3416,1.3439,1.3451,1.345,1.3483,1.3476,1.3476,1.3477,1.3491,1.3493,1.3495,1.3471,1.3471,1.3471,0,0,1.3228,1.3244,1.3261,1.3277,1.3301,1.3314,1.3318,1.3343,1.3352,1.3376,1.3385,1.3402,1.3435,1.345,1.3462,1.348,1.3486,1.3486,1.349,1.3504,1.3505,1.3507,1.3514,1.3516,1.3488,1.3488,1.3488,0,1.3225,1.3254,1.3269,1.3288,1.3302,1.3314,1.3332,1.3346,1.3374,1.3383,1.3383,1.3425,1.344,1.3468,1.3473,1.3482,1.3488,1.3483,1.3504,1.3506,1.3507,1.3514,1.3517,1.3488,1.3488,1.3488,1.3488,0,1.325,1.3269,1.328,1.3308,1.3323,1.3341,1.336,1.3373,1.3382,1.3395,1.342,1.3439,1.3463,1.347,1.3478,1.35,1.3499,1.3501,1.3499,1.3509,1.3516,1.3518,1.3488,1.3488,1.3488,1.3488,0,0,1.3252,1.329,1.3294,1.3307,1.3335,1.335,1.337,1.3393,1.3404,1.3424,1.3441,1.3469,1.3472,1.3486,1.3496,1.3508,1.3522,1.3509,1.3509,1.351,1.3547,1.3545,1.3548,1.3526,1.3527,1.3527,1.3546,0,1.3266,1.3301,1.3317,1.3345,1.3364,1.3376,1.3393,1.3412,1.3426,1.3444,1.3459,1.3479,1.348,1.3489,1.3502,1.3517,1.3529,1.3516,1.3542,1.3543,1.3536,1.3552,1.3549,1.3566,1.3548,1.3549,1.3549,0,1.3286,1.3307,1.3337,1.3364,1.3372,1.3387,1.3411,1.3428,1.345,1.3459,1.3476,1.3486,1.3507,1.3504,1.3534,1.3525,1.3537,1.3546,1.3547,1.355,1.3546,1.3554,1.3571,1.3574,1.3553,1.3553,1.3553,0,1.3285,1.332,1.3343,1.3354,1.3386,1.3397,1.341,1.3432,1.3446,1.3467,1.3476,1.3499,1.3511,1.3529,1.3545,1.3542,1.3574,1.3572,1.3582,1.3582,1.3588,1.3587,1.3606,1.3596,1.3596,1.3596,1.3596,0,1.3298,1.3316,1.3344,1.3358,1.3379,1.3397,1.3417,1.3432,1.3452,1.3469,1.3482,1.3498,1.3518,1.3537,1.355,1.3573,1.3579,1.3587,1.359,1.3585,1.3584,1.3593,1.3592,1.3596,1.3596,1.3596,1.3596,0,1.33,1.3319,1.3345,1.3374,1.3381,1.3396,1.342,1.3435,1.3449,1.3471,1.3478,1.3501,1.3524,1.3542,1.3572,1.3581,1.3605,1.3609,1.3598,1.3599,1.3608,1.3607,1.3633,1.3638,1.3624,1.3624,1.3624,0,1.3307,1.3322,1.3352,1.3365,1.3379,1.3399,1.3414,1.3433,1.3447,1.3475,1.3486,1.351,1.353,1.3567,1.3586,1.3609,1.3614,1.3621,1.3617,1.3613,1.3614,1.3613,1.3614,1.3621,1.3622,1.3622,1.3622,0,1.3318,1.3327,1.3347,1.3372,1.3389,1.3409,1.3429,1.3439,1.3462,1.3477,1.3502,1.3517,1.3549,1.3573,1.3598,1.3613,1.3621,1.3623,1.3627,1.3622,1.3615,1.3619,1.3599,1.3622,1.3622,1.3622,1.3622,1.3622,1.3323,1.3336,1.336,1.3383,1.3401,1.342,1.3435,1.3452,1.3473,1.35,1.351,1.3535,1.3559,1.3594,1.3609,1.3629,1.3629,1.3634,1.3635,1.3636,1.3636,1.3612,1.3633,1.3633,1.3633,1.3633,1.3633,0,1.3334,1.335,1.3371,1.34,1.3418,1.3425,1.3449,1.3463,1.3485,1.3506,1.3527,1.3555,1.3579,1.3601,1.3626,1.3638,1.3642,1.3643,1.3642,1.3646,1.3634,1.3628,1.3639,1.3639,1.3639,1.3639,1.3639,1.3639,1.3342,1.3366,1.3378,1.3411,1.3428,1.3453,1.3465,1.3483,1.35,1.3532,1.3552,1.3566,1.3588,1.3615,1.3638,1.3643,1.3652,1.3652,1.3659,1.3647,1.3646,1.3646,1.3641,1.3654,1.3654,1.367,1.367,1.367]},{"header":{"parameterUnit":"m.s-1","parameterCategory":1,"la1":30.2991,"la2":30.254,"lo1":-89.0895,"lo2":-89.0444,"dy":0.0017,"dx":0.0017,"nx":28,"ny":28,"refTime":"2026-02-16T09:00:00:Z","depth":0,"parameterNumber":3,"parameterNumberName":"V-component_of_WINDS"},"data":[0,0,0,0,0,0,0,0,0,0,0,0,0,0,0,0,0,0,0,0,0,0,0,0,0,0,0,0,0,0,0,0,0,0,0,0,0,0,0,0,0,0,0,0,0,0,0,0,0,0,0,0,0,0,0,0,0,0,-6.5712,-6.5713,0,-6.5766,-6.5767,-6.5767,-6.5687,-6.5685,-6.5682,-6.5679,-6.5731,-6.5735,-6.5739,0,0,0,0,0,0,0,0,0,0,0,0,0,-6.5538,-6.5542,-6.5712,-6.5713,-6.5714,-6.5766,-6.5767,-6.5768,-6.5688,-6.5685,-6.5681,-6.5678,-6.573,-6.5734,-6.5739,0,0,0,0,0,0,0,0,0,0,0,0,0,-6.5605,-6.5543,-6.5712,-6.568,-6.5678,-6.5766,-6.5767,-6.5768,-6.5689,-6.5684,-6.568,-6.5676,-6.5728,-6.5734,-6.574,-6.586,0,0,-6.5758,-6.5761,0,0,0,0,0,0,0,0,-6.5602,-6.5612,-6.5684,-6.5683,-6.568,-6.5716,-6.5724,-6.5799,-6.569,-6.5685,-6.5679,-6.5674,-6.5729,-6.5735,-6.5754,-6.5863,-6.5865,-6.5758,-6.5762,-6.5765,-6.5766,0,0,0,0,0,0,0,-6.5597,-6.5609,-6.5733,-6.5685,-6.5683,-6.5663,-6.5668,-6.5738,-6.5729,-6.5685,-6.5679,-6.5687,-6.5727,-6.5748,-6.5754,-6.5866,-6.5758,-6.5764,-6.5767,-6.577,-6.6078,-6.6083,0,0,0,0,0,0,-6.5597,-6.5606,-6.5732,-6.5735,-6.563,-6.5669,-6.5675,-6.5709,-6.5729,-6.5728,-6.569,-6.5683,-6.574,-6.5748,-6.5756,-6.59,-6.5765,-6.577,-6.5774,-6.6074,-6.6079,-6.6084,0,0,0,0,0,0,-6.5593,-6.5609,-6.573,-6.5669,-6.5683,-6.5677,-6.5715,-6.5712,-6.5733,-6.5733,-6.573,-6.5714,-6.5737,-6.5748,-6.5836,-6.59,-6.5773,-6.5778,-6.6068,-6.6075,-6.6082,-6.6188,0,0,0,0,0,0,-6.5589,-6.5608,-6.5654,-6.5671,-6.5686,-6.5809,-6.5719,-6.5716,-6.5744,-6.5735,-6.5754,-6.5753,-6.5735,-6.5827,-6.5842,-6.5906,-6.5783,-6.6062,-6.6071,-6.608,-6.6178,-6.6197,-6.6214,0,0,0,0,0,-6.5583,-6.568,-6.5657,-6.5672,-6.5744,-6.5813,-6.5822,-6.58,-6.5749,-6.5796,-6.5796,-6.5753,-6.5891,-6.5837,-6.5852,-6.592,-6.6058,-6.6069,-6.6079,-6.617,-6.6194,-6.6213,0,0,0,0,0,0,-6.5669,-6.5682,-6.5656,-6.5762,-6.5787,-6.5799,-6.5857,-6.5825,-6.5864,-6.5853,-6.5823,-6.5828,-6.5923,-6.593,-6.5869,-6.6039,-6.5966,-6.598,-6.603,-6.6053,-6.607,-6.6066,-6.5788,0,0,0,0,0,-6.5701,-6.5757,-6.5765,-6.5858,-6.5872,-6.5863,-6.5892,-6.5873,-6.5897,-6.5907,-6.5914,-6.5938,-6.5988,-6.602,-6.6065,-6.6179,-6.6183,-6.6233,-6.6251,-6.6266,-6.6278,-6.634,-6.6363,-6.6118,-6.6118,-6.6118,0,0,-6.5767,-6.578,-6.5817,-6.5875,-6.5893,-6.5951,-6.5872,-6.5936,-6.5979,-6.5916,-6.6001,-6.6007,-6.6032,-6.6135,-6.618,-6.6143,-6.6347,-6.6279,-6.629,-6.6295,-6.6353,-6.6377,-6.6397,-6.6125,-6.6124,-6.6123,0,0,-6.5916,-6.5932,-6.6012,-6.6032,-6.6061,-6.6054,-6.6074,-6.6092,-6.6094,-6.6178,-6.6133,-6.6183,-6.6268,-6.6289,-6.6311,-6.6472,-6.6434,-6.6487,-6.6579,-6.664,-6.6659,-6.6676,-6.6734,-6.6756,-6.6499,-6.65,-6.65,0,-6.5993,-6.6081,-6.6057,-6.6126,-6.6153,-6.6101,-6.6182,-6.6202,-6.6244,-6.6263,-6.6223,-6.633,-6.6343,-6.645,-6.649,-6.6509,-6.653,-6.6484,-6.6659,-6.6675,-6.6691,-6.6746,-6.6768,-6.6506,-6.6505,-6.6505,-6.6504,0,-6.6175,-6.6236,-6.6298,-6.6341,-6.6375,-6.645,-6.6437,-6.6475,-6.6454,-6.6452,-6.6539,-6.6554,-6.6602,-6.6626,-6.6605,-6.6731,-6.6708,-6.6664,-6.659,-6.6721,-6.6772,-6.6793,-6.6515,-6.6513,-6.6511,-6.6509,0,0,-6.6378,-6.641,-6.6433,-6.6453,-6.6482,-6.6529,-6.6602,-6.6651,-6.6684,-6.6714,-6.6775,-6.6849,-6.681,-6.6834,-6.6815,-6.6869,-6.6997,-6.6818,-6.6818,-6.6851,-6.7138,-6.7172,-6.7197,-6.6973,-6.6976,-6.698,-6.7136,0,-6.6528,-6.6655,-6.6638,-6.676,-6.6817,-6.677,-6.6833,-6.6858,-6.6858,-6.6906,-6.6906,-6.696,-6.6903,-6.6918,-6.6969,-6.6971,-6.7054,-6.6959,-6.7028,-6.7031,-6.7023,-6.7223,-6.7258,-6.7405,-6.7156,-6.7159,-6.7162,0,-6.6719,-6.676,-6.6889,-6.6911,-6.6934,-6.6992,-6.7036,-6.7083,-6.711,-6.7107,-6.7137,-6.7109,-6.7181,-6.7108,-6.7208,-6.7143,-6.7171,-6.7176,-6.7181,-6.7187,-6.7104,-6.7234,-6.7452,-6.7474,-6.7193,-6.7191,-6.7188,0,-6.6856,-6.6942,-6.7031,-6.705,-6.7078,-6.712,-6.7133,-6.7156,-6.7188,-6.7226,-6.7247,-6.7293,-6.7318,-6.7354,-6.734,-6.7287,-6.7443,-6.7368,-6.7443,-6.7443,-6.7477,-6.7475,-6.7702,-6.7495,-6.7494,-6.7494,-6.7493,0,-6.7025,-6.7106,-6.7093,-6.7148,-6.7237,-6.7216,-6.7305,-6.7312,-6.7334,-6.7389,-6.7351,-6.7403,-6.738,-6.7431,-6.742,-6.7506,-6.7517,-6.7516,-6.7512,-6.752,-6.752,-6.7537,-6.7527,-6.75,-6.7498,-6.7497,-6.7496,0,-6.7192,-6.7187,-6.7281,-6.7301,-6.7308,-6.7373,-6.739,-6.7441,-6.744,-6.751,-6.7526,-6.7523,-6.7582,-6.7571,-6.7634,-6.7627,-6.7734,-6.7717,-6.7726,-6.7722,-6.7798,-6.7791,-6.8044,-6.8076,-6.7847,-6.785,-6.7851,0,-6.7301,-6.7362,-6.739,-6.7425,-6.7443,-6.7499,-6.7532,-6.7514,-6.7549,-6.7587,-6.7634,-6.7689,-6.7732,-6.7827,-6.783,-6.7879,-6.7864,-6.7949,-6.787,-6.7877,-6.7866,-6.7863,-6.7869,-6.7964,-6.7967,-6.7969,-6.7971,0,-6.7494,-6.7489,-6.7538,-6.7588,-6.7629,-6.7667,-6.77,-6.7731,-6.7716,-6.7758,-6.7818,-6.7852,-6.7919,-6.7974,-6.802,-6.8033,-6.8,-6.7996,-6.8016,-6.8024,-6.8027,-6.8027,-6.7768,-6.799,-6.7988,-6.7986,-6.7985,-6.7985,-6.7635,-6.7689,-6.7718,-6.7774,-6.7799,-6.7832,-6.7882,-6.7888,-6.7938,-6.7992,-6.7979,-6.8047,-6.8074,-6.8133,-6.8152,-6.8205,-6.8173,-6.8202,-6.8209,-6.8217,-6.8226,-6.8019,-6.8213,-6.8212,-6.8212,-6.8211,-6.8211,0,-6.7827,-6.7844,-6.7897,-6.7947,-6.7992,-6.7959,-6.7996,-6.8035,-6.8097,-6.8126,-6.817,-6.824,-6.8294,-6.8304,-6.8355,-6.8396,-6.8382,-6.841,-6.8407,-6.8411,-6.8251,-6.8229,-6.842,-6.842,-6.842,-6.842,-6.842,-6.842,-6.7932,-6.8021,-6.8021,-6.8122,-6.8138,-6.8206,-6.823,-6.8261,-6.8284,-6.8365,-6.8411,-6.8417,-6.8438,-6.8491,-6.854,-6.8541,-6.8562,-6.8596,-6.8592,-6.8442,-6.8421,-6.8402,-6.8381,-6.8601,-6.8601,-6.8746,-6.8748,-6.8749]}]]